User: anonymous
Location: St. Malo Provincial Park
(49.3214°N, 96.9305°W)
Time: 06:45:39
(UTC-05:00)
Language:

Iridium 6 - Orbit

View from above orbital plane
View from above orbital plane
View from above satellite
View from above satellite

Ground track
Ground track

The orbit data is extracted from the following two-line orbital elements,

1 24794U 97020C   14233.46391631  .00000100  00000-0  28600-4 0  7438
2 24794 086.3968 029.7021 0002294 110.5340 249.6103 14.34217019905461
Epoch (UTC): 21 August 2014 11:08:02
Eccentricity: 0.0002294
inclination: 86.3968°
perigee height: 776 km
apogee height: 779 km
right ascension of ascending node: 29.7021°
argument of perigee: 110.5340°
revolutions per day: 14.34217019
mean anomaly at epoch: 249.6103°
orbit number at epoch: 90546

The dashed part of the orbit path shows where the satellite is in the earth's shadow,  

DLR